Amagi Galaxy — V7VE9 — position and weather

sailwx.info

Track history (hours):
 
Tides and Currents Weather Stations Pressure Air Temp Water Temp Dewpoint Dewpoint Depression Visibility Wind Speed Wind Dir Waves Ship Positions

Amagi Galaxy

Last reported at 2014-Jul-25 12:22 UTC. Time now 2014-Jul-25 13:49 UTC.
Position N 31°34' E 121°20'.

Length 152 m; draft 10.2 m.

Type: Ship (hazmat cat B). MMSI: 538004105.

Date/timePositionNaut miles runAvg speedWind from/ knotsBaromVisibWave heightAir tempDewpointWater temp
2014-Jul-25 12:22N 31°34' E 121°20'0 0.0
2014-Jul-25 07:10N 31°34' E 121°20'0 0.0
2014-Jul-25 05:22N 31°34' E 121°20'0 0.1
2014-Jul-25 04:22N 31°35' E 121°20'0 0.0
2014-Jul-25 03:28N 31°35' E 121°20'0 0.1
2014-Jul-25 02:28N 31°34' E 121°20'0 0.1
2014-Jul-25 01:28N 31°34' E 121°20'0 0.1
2014-Jul-25 00:21N 31°35' E 121°20'0 0.2
2014-Jul-24 23:32N 31°34' E 121°20'0 0.0
2014-Jul-24 22:14N 31°34' E 121°20'0 0.0
2014-Jul-24 21:20N 31°34' E 121°20'0 0.0
2014-Jul-24 20:32N 31°34' E 121°20'0 0.0
2014-Jul-24 18:14N 31°34' E 121°20'0 0.2
2014-Jul-24 17:26N 31°35' E 121°20'0 0.0
2014-Jul-24 16:20N 31°35' E 121°20'0 0.0
2014-Jul-24 12:26N 31°34' E 121°20'0 0.1
2014-Jul-24 11:26N 31°35' E 121°20'0 0.0
2014-Jul-24 10:26N 31°35' E 121°20'0 0.1
2014-Jul-24 08:33N 31°34' E 121°20'7 6.8
2014-Jul-24 07:33N 31°30' E 121°26'7 6.6
2014-Jul-24 06:33N 31°25' E 121°31'8 8.4
2014-Jul-24 05:33N 31°21' E 121°40'10 9.7
2014-Jul-24 04:32N 31°17' E 121°50'3110.4
2014-Jul-24 01:31N 31°06' E 122°25'  
Track history (hours):
 
Tides and Currents Weather Stations Pressure Air Temp Water Temp Dewpoint Dewpoint Depression Visibility Wind Speed Wind Dir Waves Ship Positions

Amagi Galaxy

Last reported at 2014-Jul-25 12:22 UTC. Time now 2014-Jul-25 13:49 UTC.
Position N 31°34' E 121°20'.

Length 152 m; draft 10.2 m.

Type: Ship (hazmat cat B). MMSI: 538004105.

Date/timePositionNaut miles runAvg speedWind from/ knotsBaromVisibWave heightAir tempDewpointWater temp
2014-Jul-25 12:22N 31°34' E 121°20'0 0.0
2014-Jul-25 07:10N 31°34' E 121°20'0 0.0
2014-Jul-25 05:22N 31°34' E 121°20'0 0.1
2014-Jul-25 04:22N 31°35' E 121°20'0 0.0
2014-Jul-25 03:28N 31°35' E 121°20'0 0.1
2014-Jul-25 02:28N 31°34' E 121°20'0 0.1
2014-Jul-25 01:28N 31°34' E 121°20'0 0.1
2014-Jul-25 00:21N 31°35' E 121°20'0 0.2
2014-Jul-24 23:32N 31°34' E 121°20'0 0.0
2014-Jul-24 22:14N 31°34' E 121°20'0 0.0
2014-Jul-24 21:20N 31°34' E 121°20'0 0.0
2014-Jul-24 20:32N 31°34' E 121°20'0 0.0
2014-Jul-24 18:14N 31°34' E 121°20'0 0.2
2014-Jul-24 17:26N 31°35' E 121°20'0 0.0
2014-Jul-24 16:20N 31°35' E 121°20'0 0.0
2014-Jul-24 12:26N 31°34' E 121°20'0 0.1
2014-Jul-24 11:26N 31°35' E 121°20'0 0.0
2014-Jul-24 10:26N 31°35' E 121°20'0 0.1
2014-Jul-24 08:33N 31°34' E 121°20'7 6.8
2014-Jul-24 07:33N 31°30' E 121°26'7 6.6
2014-Jul-24 06:33N 31°25' E 121°31'8 8.4
2014-Jul-24 05:33N 31°21' E 121°40'10 9.7
2014-Jul-24 04:32N 31°17' E 121°50'3110.4
2014-Jul-24 01:31N 31°06' E 122°25'  

Dump ship's entire track history